N321PK KROC-KBKL

Flight info

Callsign N321PK
Flight time 1h 31m
Altitude 10000
Route ROC LFTON BOGGE
Aircraft BE58/L-SDGRY/S

Departure

Time 2026-04-30 02:11
Airport Frederick Douglass Greater Rochester International Airport (KROC)

Arrival

Time 2026-04-30 03:42
Airport Burke Lakefront Airport (KBKL)
Time Latitude Longitude Altitude Speed Heading
2026-04-30 01:44 43.11956 -77.65813 539 ft 0 kts 330°
2026-04-30 02:05 43.11958 -77.65815 539 ft 2 kts 330°
2026-04-30 02:05 43.11998 -77.65848 539 ft 9 kts 327°
2026-04-30 02:05 43.12043 -77.65821 539 ft 8 kts 59°
2026-04-30 02:06 43.12080 -77.65732 539 ft 12 kts 61°
2026-04-30 02:06 43.12132 -77.65616 538 ft 14 kts 37°
2026-04-30 02:06 43.12209 -77.65601 538 ft 8 kts 352°
2026-04-30 02:06 43.12257 -77.65601 538 ft 0 kts 357°
2026-04-30 02:09 43.12262 -77.65601 538 ft 4 kts 357°
2026-04-30 02:09 43.12327 -77.65610 539 ft 12 kts 344°
2026-04-30 02:10 43.12343 -77.65737 540 ft 15 kts 266°
2026-04-30 02:10 43.12340 -77.65868 541 ft 45 kts 267°
2026-04-30 02:10 43.12307 -77.66563 710 ft 82 kts 269°
2026-04-30 02:10 43.12254 -77.67416 1044 ft 94 kts 270°
2026-04-30 02:11 43.12116 -77.68295 1416 ft 105 kts 265°
2026-04-30 02:11 43.12130 -77.69504 1226 ft 148 kts 282°
2026-04-30 02:11 43.11873 -77.70451 2271 ft 95 kts 237°
2026-04-30 02:11 43.11485 -77.71254 2560 ft 113 kts 245°
2026-04-30 02:12 43.11026 -77.72068 3025 ft 106 kts 250°
2026-04-30 02:12 43.10636 -77.73066 3081 ft 138 kts 240°
2026-04-30 02:12 43.10037 -77.74218 3131 ft 159 kts 238°
2026-04-30 02:12 43.09393 -77.75471 3387 ft 162 kts 239°
2026-04-30 02:13 43.08754 -77.76743 3671 ft 163 kts 240°
2026-04-30 02:13 43.08117 -77.78027 3947 ft 163 kts 240°
2026-04-30 02:13 43.07480 -77.79312 4229 ft 163 kts 239°
2026-04-30 02:13 43.06847 -77.80590 4504 ft 163 kts 240°
2026-04-30 02:14 43.06207 -77.81884 4783 ft 163 kts 239°
2026-04-30 02:14 43.05580 -77.83153 5068 ft 163 kts 239°
2026-04-30 02:14 43.04947 -77.84431 5347 ft 162 kts 239°
2026-04-30 02:14 43.04313 -77.85711 5631 ft 161 kts 239°
2026-04-30 02:15 43.03684 -77.86979 5910 ft 160 kts 238°
2026-04-30 02:15 43.03061 -77.88237 6186 ft 159 kts 239°
2026-04-30 02:15 43.02449 -77.89472 6445 ft 157 kts 239°
2026-04-30 02:15 43.01837 -77.90704 6709 ft 156 kts 238°
2026-04-30 02:16 43.01231 -77.91927 6965 ft 155 kts 238°
2026-04-30 02:16 43.00634 -77.93128 7208 ft 154 kts 238°
2026-04-30 02:16 43.00036 -77.94334 7441 ft 153 kts 238°
2026-04-30 02:16 42.99437 -77.95540 7674 ft 152 kts 238°
2026-04-30 02:17 42.98845 -77.96730 7898 ft 151 kts 238°
2026-04-30 02:17 42.98063 -77.98304 8183 ft 149 kts 238°
2026-04-30 02:17 42.97676 -77.99081 8320 ft 148 kts 238°
2026-04-30 02:17 42.97099 -78.00242 8522 ft 146 kts 238°
2026-04-30 02:18 42.96531 -78.01384 8710 ft 145 kts 238°
2026-04-30 02:18 42.95969 -78.02513 8899 ft 143 kts 237°
2026-04-30 02:18 42.95417 -78.03620 9089 ft 139 kts 237°
2026-04-30 02:18 42.94875 -78.04708 9231 ft 139 kts 237°
2026-04-30 02:19 42.94328 -78.05804 9345 ft 140 kts 237°
2026-04-30 02:19 42.93776 -78.06912 9470 ft 140 kts 238°
2026-04-30 02:19 42.93232 -78.08003 9590 ft 140 kts 238°
2026-04-30 02:19 42.92681 -78.09107 9710 ft 139 kts 238°
2026-04-30 02:20 42.92135 -78.10202 9820 ft 139 kts 237°
2026-04-30 02:20 42.91598 -78.11276 9923 ft 138 kts 238°
2026-04-30 02:20 42.91045 -78.12386 9932 ft 145 kts 238°
2026-04-30 02:20 42.90460 -78.13557 9929 ft 151 kts 238°
2026-04-30 02:21 42.89862 -78.14754 9925 ft 157 kts 238°
2026-04-30 02:21 42.89233 -78.16011 9925 ft 162 kts 238°
2026-04-30 02:21 42.88590 -78.17297 9929 ft 166 kts 238°
2026-04-30 02:21 42.87935 -78.18605 9930 ft 169 kts 238°
2026-04-30 02:22 42.87265 -78.19943 9926 ft 172 kts 238°
2026-04-30 02:22 42.86592 -78.21287 9918 ft 171 kts 237°
2026-04-30 02:22 42.85917 -78.22633 9913 ft 171 kts 237°
2026-04-30 02:22 42.85024 -78.24410 9916 ft 170 kts 237°
2026-04-30 02:23 42.84584 -78.25286 9917 ft 170 kts 237°
2026-04-30 02:23 42.83915 -78.26616 9917 ft 169 kts 237°
2026-04-30 02:23 42.83252 -78.27938 9918 ft 169 kts 238°
2026-04-30 02:23 42.82594 -78.29246 9919 ft 167 kts 238°
2026-04-30 02:24 42.81937 -78.30550 9920 ft 166 kts 238°
2026-04-30 02:24 42.81278 -78.31862 9921 ft 165 kts 238°
2026-04-30 02:24 42.80632 -78.33147 9918 ft 164 kts 239°
2026-04-30 02:24 42.79997 -78.34408 9925 ft 162 kts 238°
2026-04-30 02:25 42.79361 -78.35672 9923 ft 160 kts 238°
2026-04-30 02:25 42.78737 -78.36912 9913 ft 158 kts 238°
2026-04-30 02:25 42.78114 -78.38148 9915 ft 155 kts 238°
2026-04-30 02:25 42.77515 -78.39332 9917 ft 152 kts 237°
2026-04-30 02:26 42.77117 -78.40119 9925 ft 149 kts 238°
2026-04-30 02:26 42.76312 -78.41712 9925 ft 143 kts 238°
2026-04-30 02:26 42.75761 -78.42802 9918 ft 138 kts 238°
2026-04-30 02:26 42.75220 -78.43873 9918 ft 133 kts 238°
2026-04-30 02:27 42.74701 -78.44900 9921 ft 130 kts 238°
2026-04-30 02:27 42.74195 -78.45901 9922 ft 127 kts 238°
2026-04-30 02:27 42.73697 -78.46885 9925 ft 127 kts 238°
2026-04-30 02:27 42.73195 -78.47879 9932 ft 127 kts 239°
2026-04-30 02:28 42.72691 -78.48876 9931 ft 128 kts 239°
2026-04-30 02:28 42.72186 -78.49874 9930 ft 129 kts 239°
2026-04-30 02:28 42.71675 -78.50884 9931 ft 130 kts 239°
2026-04-30 02:28 42.71158 -78.51906 9931 ft 130 kts 239°
2026-04-30 02:29 42.70641 -78.52927 9930 ft 131 kts 239°
2026-04-30 02:29 42.70130 -78.53937 9936 ft 131 kts 239°
2026-04-30 02:29 42.69606 -78.54971 9933 ft 131 kts 239°
2026-04-30 02:29 42.69093 -78.55985 9935 ft 131 kts 239°
2026-04-30 02:30 42.68577 -78.57001 9929 ft 131 kts 239°
2026-04-30 02:30 42.68059 -78.58023 9926 ft 129 kts 240°
2026-04-30 02:30 42.67550 -78.59026 9925 ft 128 kts 239°
2026-04-30 02:30 42.67042 -78.60026 9929 ft 128 kts 239°
2026-04-30 02:31 42.66537 -78.61021 9933 ft 128 kts 239°
2026-04-30 02:31 42.66031 -78.62018 9935 ft 128 kts 240°
2026-04-30 02:31 42.65526 -78.63011 9933 ft 128 kts 239°
2026-04-30 02:31 42.65020 -78.64008 9932 ft 128 kts 239°
2026-04-30 02:32 42.64514 -78.65001 9925 ft 126 kts 239°
2026-04-30 02:32 42.64016 -78.65978 9930 ft 125 kts 240°
2026-04-30 02:32 42.63521 -78.66949 9935 ft 124 kts 239°
2026-04-30 02:32 42.63031 -78.67911 9939 ft 124 kts 239°
2026-04-30 02:33 42.62538 -78.68878 9935 ft 124 kts 239°
2026-04-30 02:33 42.62051 -78.69834 9934 ft 123 kts 239°
2026-04-30 02:33 42.61567 -78.70784 9935 ft 123 kts 239°
2026-04-30 02:33 42.61081 -78.71739 9933 ft 123 kts 239°
2026-04-30 02:34 42.60595 -78.72693 9931 ft 123 kts 239°
2026-04-30 02:34 42.60107 -78.73650 9931 ft 123 kts 238°
2026-04-30 02:34 42.59618 -78.74606 9929 ft 122 kts 238°
2026-04-30 02:34 42.59142 -78.75536 9928 ft 120 kts 238°
2026-04-30 02:35 42.58672 -78.76455 9939 ft 117 kts 239°
2026-04-30 02:35 42.58202 -78.77372 9929 ft 116 kts 239°
2026-04-30 02:35 42.57751 -78.78255 9930 ft 113 kts 239°
2026-04-30 02:35 42.57307 -78.79122 9940 ft 111 kts 239°
2026-04-30 02:36 42.56866 -78.79981 9931 ft 109 kts 239°
2026-04-30 02:36 42.56438 -78.80816 9930 ft 105 kts 240°
2026-04-30 02:36 42.56031 -78.81607 9928 ft 101 kts 240°
2026-04-30 02:36 42.55634 -78.82378 9931 ft 96 kts 240°
2026-04-30 02:37 42.55257 -78.83109 9927 ft 91 kts 240°
2026-04-30 02:37 42.54906 -78.83783 9913 ft 85 kts 240°
2026-04-30 02:37 42.54326 -78.84060 9526 ft 129 kts 143°
2026-04-30 02:37 42.53690 -78.83303 9450 ft 119 kts 159°
2026-04-30 02:38 42.52853 -78.83401 9019 ft 133 kts 231°
2026-04-30 02:38 42.52844 -78.84244 9168 ft 94 kts 293°
2026-04-30 02:38 42.52989 -78.85124 9131 ft 96 kts 263°
2026-04-30 02:38 42.52824 -78.86020 9133 ft 99 kts 255°
2026-04-30 02:39 42.52592 -78.86889 9168 ft 98 kts 251°
2026-04-30 02:39 42.52319 -78.87749 9168 ft 99 kts 249°
2026-04-30 02:39 42.52013 -78.88602 9191 ft 101 kts 248°
2026-04-30 02:39 42.51685 -78.89442 9206 ft 102 kts 246°
2026-04-30 02:40 42.51331 -78.90288 9235 ft 102 kts 244°
2026-04-30 02:40 42.50971 -78.91107 9261 ft 102 kts 243°
2026-04-30 02:40 42.50593 -78.91934 9277 ft 102 kts 243°
2026-04-30 02:40 42.50208 -78.92753 9297 ft 102 kts 242°
2026-04-30 02:41 42.49823 -78.93556 9317 ft 102 kts 242°
2026-04-30 02:41 42.49428 -78.94363 9339 ft 102 kts 241°
2026-04-30 02:41 42.49033 -78.95164 9362 ft 102 kts 241°
2026-04-30 02:41 42.48634 -78.95964 9378 ft 102 kts 241°
2026-04-30 02:42 42.48231 -78.96767 9398 ft 103 kts 241°
2026-04-30 02:42 42.47826 -78.97568 9419 ft 104 kts 241°
2026-04-30 02:42 42.47414 -78.98382 9439 ft 105 kts 241°
2026-04-30 02:42 42.46997 -78.99200 9459 ft 105 kts 240°
2026-04-30 02:43 42.46578 -79.00018 9482 ft 106 kts 240°
2026-04-30 02:43 42.46154 -79.00848 9501 ft 107 kts 240°
2026-04-30 02:43 42.45729 -79.01678 9525 ft 107 kts 240°
2026-04-30 02:43 42.45301 -79.02508 9547 ft 107 kts 240°
2026-04-30 02:44 42.44875 -79.03336 9570 ft 107 kts 240°
2026-04-30 02:44 42.44452 -79.04160 9596 ft 107 kts 240°
2026-04-30 02:44 42.44024 -79.04991 9620 ft 107 kts 239°
2026-04-30 02:44 42.43599 -79.05815 9644 ft 107 kts 240°
2026-04-30 02:45 42.43173 -79.06641 9666 ft 107 kts 240°
2026-04-30 02:45 42.42749 -79.07466 9687 ft 106 kts 240°
2026-04-30 02:45 42.42323 -79.08293 9700 ft 106 kts 240°
2026-04-30 02:45 42.41899 -79.09117 9714 ft 106 kts 240°
2026-04-30 02:46 42.41472 -79.09945 9729 ft 107 kts 240°
2026-04-30 02:46 42.41044 -79.10777 9741 ft 107 kts 240°
2026-04-30 02:46 42.40612 -79.11614 9754 ft 108 kts 240°
2026-04-30 02:46 42.40181 -79.12450 9773 ft 108 kts 240°
2026-04-30 02:47 42.39749 -79.13284 9786 ft 109 kts 240°
2026-04-30 02:47 42.39310 -79.14132 9807 ft 109 kts 240°
2026-04-30 02:47 42.38876 -79.14972 9824 ft 109 kts 240°
2026-04-30 02:47 42.38434 -79.15827 9823 ft 111 kts 240°
2026-04-30 02:48 42.37989 -79.16688 9820 ft 113 kts 240°
2026-04-30 02:48 42.37528 -79.17580 9823 ft 115 kts 239°
2026-04-30 02:48 42.37068 -79.18471 9822 ft 117 kts 239°
2026-04-30 02:48 42.36597 -79.19379 9821 ft 119 kts 239°
2026-04-30 02:49 42.36118 -79.20305 9820 ft 120 kts 239°
2026-04-30 02:49 42.35634 -79.21239 9820 ft 122 kts 240°
2026-04-30 02:49 42.35144 -79.22185 9819 ft 123 kts 240°
2026-04-30 02:49 42.34652 -79.23135 9817 ft 124 kts 239°
2026-04-30 02:50 42.34153 -79.24100 9813 ft 126 kts 240°
2026-04-30 02:50 42.33644 -79.25085 9813 ft 127 kts 240°
2026-04-30 02:50 42.33136 -79.26070 9812 ft 128 kts 240°
2026-04-30 02:50 42.32624 -79.27058 9809 ft 129 kts 240°
2026-04-30 02:51 42.32105 -79.28060 9810 ft 130 kts 239°
2026-04-30 02:51 42.31587 -79.29060 9811 ft 130 kts 239°
2026-04-30 02:51 42.31065 -79.30067 9812 ft 131 kts 239°
2026-04-30 02:51 42.30537 -79.31081 9813 ft 131 kts 239°
2026-04-30 02:52 42.30016 -79.32085 9810 ft 132 kts 239°
2026-04-30 02:52 42.29483 -79.33109 9810 ft 132 kts 239°
2026-04-30 02:52 42.28951 -79.34132 9807 ft 133 kts 239°
2026-04-30 02:52 42.28419 -79.35155 9806 ft 133 kts 240°
2026-04-30 02:53 42.27890 -79.36172 9805 ft 134 kts 240°
2026-04-30 02:53 42.27353 -79.37202 9806 ft 134 kts 240°
2026-04-30 02:53 42.26815 -79.38236 9806 ft 134 kts 240°
2026-04-30 02:53 42.26272 -79.39278 9803 ft 135 kts 240°
2026-04-30 02:54 42.25736 -79.40307 9804 ft 135 kts 240°
2026-04-30 02:54 42.25188 -79.41357 9802 ft 136 kts 240°
2026-04-30 02:54 42.24648 -79.42391 9803 ft 136 kts 239°
2026-04-30 02:54 42.24104 -79.43433 9805 ft 136 kts 239°
2026-04-30 02:55 42.23551 -79.44493 9805 ft 137 kts 239°
2026-04-30 02:55 42.23006 -79.45536 9806 ft 137 kts 239°
2026-04-30 02:55 42.22451 -79.46600 9808 ft 138 kts 239°
2026-04-30 02:55 42.21896 -79.47659 9812 ft 138 kts 239°
2026-04-30 02:56 42.21341 -79.48721 9813 ft 139 kts 239°
2026-04-30 02:56 42.20779 -79.49795 9812 ft 140 kts 239°
2026-04-30 02:56 42.20216 -79.50867 9813 ft 141 kts 239°
2026-04-30 02:56 42.19647 -79.51954 9811 ft 142 kts 239°
2026-04-30 02:57 42.19072 -79.53055 9808 ft 143 kts 239°
2026-04-30 02:57 42.18499 -79.54149 9804 ft 144 kts 239°
2026-04-30 02:57 42.17923 -79.55249 9804 ft 145 kts 239°
2026-04-30 02:57 42.17339 -79.56364 9806 ft 146 kts 239°
2026-04-30 02:58 42.16751 -79.57488 9804 ft 147 kts 239°
2026-04-30 02:58 42.16155 -79.58626 9802 ft 148 kts 251°
2026-04-30 02:58 42.15567 -79.59763 9803 ft 149 kts 239°
2026-04-30 02:58 42.14964 -79.60904 9801 ft 150 kts 239°
2026-04-30 02:59 42.14356 -79.62058 9800 ft 152 kts 239°
2026-04-30 02:59 42.13737 -79.63232 9803 ft 153 kts 238°
2026-04-30 02:59 42.13110 -79.64419 9803 ft 155 kts 239°
2026-04-30 02:59 42.12484 -79.65609 9803 ft 156 kts 237°
2026-04-30 03:00 42.11855 -79.66803 9802 ft 156 kts 238°
2026-04-30 03:00 42.11224 -79.68002 9804 ft 157 kts 238°
2026-04-30 03:00 42.10594 -79.69197 9804 ft 156 kts 239°
2026-04-30 03:00 42.09971 -79.70383 9807 ft 156 kts 238°
2026-04-30 03:01 42.09339 -79.71586 9759 ft 160 kts 238°
2026-04-30 03:01 42.08688 -79.72821 9733 ft 161 kts 238°
2026-04-30 03:01 42.08047 -79.74040 9730 ft 161 kts 238°
2026-04-30 03:01 42.07396 -79.75272 9735 ft 161 kts 238°
2026-04-30 03:02 42.06744 -79.76502 9737 ft 161 kts 238°
2026-04-30 03:02 42.06099 -79.77720 9738 ft 161 kts 238°
2026-04-30 03:02 42.05449 -79.78954 9739 ft 162 kts 238°
2026-04-30 03:02 42.04790 -79.80202 9739 ft 162 kts 238°
2026-04-30 03:03 42.04139 -79.81438 9739 ft 163 kts 238°
2026-04-30 03:03 42.02817 -79.83941 9741 ft 164 kts 238°
2026-04-30 03:03 42.02158 -79.85191 9741 ft 165 kts 238°
2026-04-30 03:04 42.01490 -79.86453 9740 ft 166 kts 238°
2026-04-30 03:04 42.00814 -79.87732 9740 ft 167 kts 238°
2026-04-30 03:04 42.00139 -79.89007 9739 ft 168 kts 238°
2026-04-30 03:04 41.99463 -79.90282 9742 ft 168 kts 238°
2026-04-30 03:05 41.98783 -79.91567 9742 ft 169 kts 238°
2026-04-30 03:05 41.98097 -79.92858 9743 ft 169 kts 238°
2026-04-30 03:05 41.97413 -79.94147 9743 ft 169 kts 238°
2026-04-30 03:05 41.96739 -79.95418 9743 ft 169 kts 238°
2026-04-30 03:06 41.96050 -79.96716 9746 ft 169 kts 238°
2026-04-30 03:06 41.95365 -79.98003 9748 ft 170 kts 238°
2026-04-30 03:06 41.94674 -79.99305 9748 ft 170 kts 238°
2026-04-30 03:06 41.93981 -80.00607 9747 ft 171 kts 238°
2026-04-30 03:07 41.93296 -80.01897 9746 ft 171 kts 238°
2026-04-30 03:07 41.92606 -80.03194 9743 ft 171 kts 238°
2026-04-30 03:07 41.91912 -80.04497 9742 ft 172 kts 238°
2026-04-30 03:07 41.91218 -80.05798 9743 ft 172 kts 238°
2026-04-30 03:08 41.90515 -80.07118 9747 ft 173 kts 238°
2026-04-30 03:08 41.89816 -80.08428 9747 ft 173 kts 238°
2026-04-30 03:08 41.89113 -80.09747 9748 ft 173 kts 238°
2026-04-30 03:08 41.88409 -80.11066 9728 ft 175 kts 239°
2026-04-30 03:09 41.87692 -80.12412 9612 ft 180 kts 238°
2026-04-30 03:09 41.86949 -80.13805 9482 ft 185 kts 238°
2026-04-30 03:09 41.86193 -80.15219 9365 ft 188 kts 238°
2026-04-30 03:09 41.85426 -80.16653 9255 ft 189 kts 238°
2026-04-30 03:10 41.84663 -80.18077 9143 ft 189 kts 238°
2026-04-30 03:10 41.83892 -80.19517 9027 ft 188 kts 238°
2026-04-30 03:10 41.83139 -80.20924 8919 ft 187 kts 238°
2026-04-30 03:10 41.82377 -80.22345 8814 ft 187 kts 238°
2026-04-30 03:11 41.81613 -80.23769 8708 ft 187 kts 238°
2026-04-30 03:11 41.80861 -80.25173 8597 ft 187 kts 238°
2026-04-30 03:11 41.80103 -80.26587 8523 ft 184 kts 238°
2026-04-30 03:11 41.79354 -80.27983 8433 ft 186 kts 238°
2026-04-30 03:12 41.78594 -80.29399 8289 ft 186 kts 238°
2026-04-30 03:12 41.77841 -80.30801 8152 ft 186 kts 238°
2026-04-30 03:12 41.77080 -80.32216 8014 ft 185 kts 238°
2026-04-30 03:12 41.76324 -80.33622 7875 ft 185 kts 238°
2026-04-30 03:13 41.75574 -80.35016 7735 ft 185 kts 238°
2026-04-30 03:13 41.74819 -80.36420 7598 ft 185 kts 238°
2026-04-30 03:13 41.74068 -80.37814 7462 ft 186 kts 238°
2026-04-30 03:13 41.73316 -80.39211 7324 ft 185 kts 238°
2026-04-30 03:14 41.72558 -80.40619 7185 ft 185 kts 238°
2026-04-30 03:14 41.71811 -80.42005 7048 ft 185 kts 238°
2026-04-30 03:14 41.71057 -80.43402 6909 ft 184 kts 238°
2026-04-30 03:14 41.70310 -80.44786 6772 ft 184 kts 238°
2026-04-30 03:15 41.69555 -80.46185 6633 ft 183 kts 238°
2026-04-30 03:15 41.68811 -80.47562 6496 ft 183 kts 238°
2026-04-30 03:15 41.68061 -80.48949 6358 ft 183 kts 239°
2026-04-30 03:15 41.67317 -80.50326 6222 ft 182 kts 239°
2026-04-30 03:16 41.66746 -80.51807 6072 ft 179 kts 259°
2026-04-30 03:16 41.66521 -80.53418 5935 ft 178 kts 263°
2026-04-30 03:16 41.66321 -80.55064 5803 ft 178 kts 263°
2026-04-30 03:16 41.66123 -80.56696 5831 ft 176 kts 264°
2026-04-30 03:17 41.65928 -80.58293 5830 ft 176 kts 264°
2026-04-30 03:17 41.65745 -80.59914 5830 ft 175 kts 268°
2026-04-30 03:17 41.65663 -80.61531 5829 ft 175 kts 269°
2026-04-30 03:17 41.65595 -80.63167 5730 ft 175 kts 269°
2026-04-30 03:18 41.65532 -80.64784 5639 ft 173 kts 269°
2026-04-30 03:18 41.65472 -80.66400 5534 ft 170 kts 269°
2026-04-30 03:18 41.65416 -80.67950 5425 ft 167 kts 269°
2026-04-30 03:18 41.65362 -80.69479 5294 ft 163 kts 269°
2026-04-30 03:19 41.65310 -80.70998 5144 ft 161 kts 269°
2026-04-30 03:19 41.65259 -80.72465 5011 ft 159 kts 270°
2026-04-30 03:19 41.65208 -80.73948 4866 ft 159 kts 269°
2026-04-30 03:19 41.65157 -80.75427 4740 ft 157 kts 269°
2026-04-30 03:20 41.65106 -80.76836 4772 ft 147 kts 269°
2026-04-30 03:20 41.65059 -80.78166 4778 ft 140 kts 269°
2026-04-30 03:20 41.65014 -80.79439 4781 ft 134 kts 269°
2026-04-30 03:20 41.64973 -80.80647 4790 ft 129 kts 270°
2026-04-30 03:21 41.64931 -80.81859 4789 ft 132 kts 270°
2026-04-30 03:21 41.64887 -80.83111 4790 ft 135 kts 269°
2026-04-30 03:21 41.64841 -80.84380 4791 ft 138 kts 270°
2026-04-30 03:21 41.64796 -80.85665 4787 ft 140 kts 269°
2026-04-30 03:22 41.64750 -80.86987 4777 ft 142 kts 270°
2026-04-30 03:22 41.64703 -80.88302 4779 ft 143 kts 269°
2026-04-30 03:22 41.64655 -80.89638 4786 ft 143 kts 270°
2026-04-30 03:22 41.64607 -80.90974 4782 ft 144 kts 271°
2026-04-30 03:23 41.64559 -80.92311 4772 ft 145 kts 268°
2026-04-30 03:23 41.64511 -80.93655 4781 ft 144 kts 270°
2026-04-30 03:23 41.64463 -80.94997 4781 ft 144 kts 269°
2026-04-30 03:23 41.64414 -80.96338 4785 ft 145 kts 269°
2026-04-30 03:24 41.64365 -80.97684 4783 ft 146 kts 270°
2026-04-30 03:24 41.64316 -80.99050 4779 ft 147 kts 270°
2026-04-30 03:24 41.64267 -81.00402 4768 ft 145 kts 271°
2026-04-30 03:24 41.64218 -81.01730 4796 ft 140 kts 268°
2026-04-30 03:25 41.64173 -81.03009 4787 ft 137 kts 270°
2026-04-30 03:25 41.64125 -81.04269 4819 ft 133 kts 268°
2026-04-30 03:25 41.64079 -81.05514 4785 ft 133 kts 268°
2026-04-30 03:25 41.64034 -81.06736 4784 ft 130 kts 270°
2026-04-30 03:26 41.63989 -81.07928 4776 ft 128 kts 269°
2026-04-30 03:26 41.63944 -81.09101 4789 ft 125 kts 269°
2026-04-30 03:26 41.63900 -81.10267 4787 ft 125 kts 271°
2026-04-30 03:26 41.63858 -81.11423 4794 ft 125 kts 270°
2026-04-30 03:27 41.63815 -81.12564 4867 ft 119 kts 269°
2026-04-30 03:27 41.63772 -81.13701 4785 ft 128 kts 271°
2026-04-30 03:27 41.63726 -81.14936 4638 ft 137 kts 270°
2026-04-30 03:27 41.63676 -81.16241 4538 ft 142 kts 270°
2026-04-30 03:28 41.63625 -81.17572 4460 ft 145 kts 269°
2026-04-30 03:28 41.63573 -81.18936 4371 ft 149 kts 269°
2026-04-30 03:28 41.63518 -81.20329 4268 ft 150 kts 270°
2026-04-30 03:28 41.63465 -81.21731 4169 ft 152 kts 270°
2026-04-30 03:29 41.63411 -81.23162 4013 ft 154 kts 270°
2026-04-30 03:29 41.63355 -81.24586 3873 ft 156 kts 270°
2026-04-30 03:29 41.63298 -81.26040 3758 ft 156 kts 270°
2026-04-30 03:29 41.63242 -81.27487 3617 ft 156 kts 270°
2026-04-30 03:30 41.63186 -81.28931 3484 ft 154 kts 270°
2026-04-30 03:30 41.63130 -81.30344 3330 ft 148 kts 269°
2026-04-30 03:30 41.63076 -81.31688 3156 ft 145 kts 270°
2026-04-30 03:30 41.63023 -81.33027 2972 ft 142 kts 270°
2026-04-30 03:31 41.62973 -81.34325 2797 ft 137 kts 269°
2026-04-30 03:31 41.62925 -81.35498 2838 ft 117 kts 270°
2026-04-30 03:31 41.62883 -81.36519 2845 ft 105 kts 271°
2026-04-30 03:31 41.62846 -81.37495 2848 ft 107 kts 269°
2026-04-30 03:32 41.62806 -81.38525 2861 ft 114 kts 271°
2026-04-30 03:32 41.62764 -81.39600 2851 ft 119 kts 271°
2026-04-30 03:32 41.62718 -81.40720 2838 ft 121 kts 269°
2026-04-30 03:32 41.62672 -81.41854 2854 ft 122 kts 271°
2026-04-30 03:33 41.62626 -81.42981 2842 ft 122 kts 270°
2026-04-30 03:33 41.62587 -81.44110 2841 ft 121 kts 271°
2026-04-30 03:33 41.62529 -81.45246 2835 ft 122 kts 260°
2026-04-30 03:33 41.62164 -81.46262 2844 ft 122 kts 243°
2026-04-30 03:34 41.61749 -81.47174 2848 ft 107 kts 242°
2026-04-30 03:34 41.61370 -81.47989 2844 ft 100 kts 242°
2026-04-30 03:34 41.61012 -81.48761 2853 ft 98 kts 243°
2026-04-30 03:34 41.60641 -81.49562 2851 ft 104 kts 242°
2026-04-30 03:35 41.60249 -81.50405 2849 ft 108 kts 242°
2026-04-30 03:35 41.59843 -81.51273 2843 ft 110 kts 242°
2026-04-30 03:35 41.59438 -81.52138 2842 ft 110 kts 243°
2026-04-30 03:35 41.59027 -81.53017 2846 ft 111 kts 243°
2026-04-30 03:36 41.58616 -81.53898 2847 ft 111 kts 243°
2026-04-30 03:36 41.58197 -81.54795 2754 ft 120 kts 242°
2026-04-30 03:36 41.57744 -81.55762 2612 ft 124 kts 242°
2026-04-30 03:36 41.57280 -81.56748 2447 ft 126 kts 242°
2026-04-30 03:37 41.56810 -81.57749 2281 ft 128 kts 241°
2026-04-30 03:37 41.56334 -81.58760 2117 ft 129 kts 240°
2026-04-30 03:37 41.55854 -81.59782 1935 ft 129 kts 240°
2026-04-30 03:37 41.55391 -81.60763 1761 ft 120 kts 240°
2026-04-30 03:38 41.54952 -81.61695 1598 ft 118 kts 240°
2026-04-30 03:38 41.54517 -81.62611 1437 ft 117 kts 240°
2026-04-30 03:38 41.54084 -81.63534 1275 ft 116 kts 240°
2026-04-30 03:38 41.53674 -81.64446 1152 ft 111 kts 250°
2026-04-30 03:39 41.53536 -81.65368 1217 ft 92 kts 271°
2026-04-30 03:39 41.53569 -81.66243 1121 ft 99 kts 276°
2026-04-30 03:39 41.53528 -81.67200 987 ft 106 kts 260°
2026-04-30 03:39 41.53330 -81.68167 880 ft 110 kts 251°
2026-04-30 03:40 41.53027 -81.69103 888 ft 105 kts 245°
2026-04-30 03:40 41.52680 -81.69917 976 ft 100 kts 240°
2026-04-30 03:40 41.52260 -81.70701 939 ft 106 kts 234°
2026-04-30 03:40 41.51790 -81.71482 850 ft 112 kts 232°
2026-04-30 03:41 41.51239 -81.72166 890 ft 101 kts 203°
2026-04-30 03:41 41.50565 -81.72125 857 ft 102 kts 148°
2026-04-30 03:41 41.50246 -81.71374 827 ft 95 kts 68°
2026-04-30 03:41 41.50648 -81.70679 757 ft 96 kts 41°
2026-04-30 03:42 41.51060 -81.69995 755 ft 94 kts 55°
2026-04-30 03:42 41.51407 -81.69235 640 ft 93 kts 53°
2026-04-30 03:42 41.51718 -81.68571 576 ft 68 kts 54°
2026-04-30 03:42 41.51920 -81.68131 574 ft 46 kts 58°
2026-04-30 03:43 41.52075 -81.67800 572 ft 39 kts 49°
2026-04-30 03:43 41.52184 -81.67556 571 ft 27 kts 60°
2026-04-30 03:43 41.52287 -81.67349 570 ft 23 kts 56°
2026-04-30 03:43 41.52340 -81.67170 570 ft 17 kts 116°
2026-04-30 03:44 41.52248 -81.67071 570 ft 18 kts 147°
2026-04-30 03:44 41.52156 -81.67137 570 ft 17 kts 237°
2026-04-30 03:44 41.52072 -81.67315 571 ft 27 kts 237°
2026-04-30 03:44 41.51966 -81.67542 571 ft 31 kts 238°
2026-04-30 03:45 41.51844 -81.67802 573 ft 34 kts 238°
2026-04-30 03:45 41.51714 -81.68076 574 ft 36 kts 237°
2026-04-30 03:45 41.51589 -81.68344 576 ft 16 kts 237°
2026-04-30 03:45 41.51529 -81.68363 576 ft 7 kts 169°
2026-04-30 03:46 41.51517 -81.68375 576 ft 0 kts 321°